Location: Treviso
(45.6669°N, 12.2430°E)
Time: 05:15:14
(UTC+02:00)

NOAA 15 - Pass Details

Date: 27 April 2019
Orbit: 798 x 812 km, 98.7° (Epoch: 26 May)

Event Time Altitude Azimuth Distance (km) Brightness Sun altitude
Rises 20:35:47 0° 202° (SSW) 3,292 7.8 -4.6°
Reaches altitude 10° 20:38:37 10° 218° (SW) 2,367 7.2 -5.0°
Maximum altitude 20:42:36 22° 268° (W) 1,697 7.2 -5.6°
Drops below altitude 10° 20:46:36 10° 318° (NW) 2,381 8.4 -6.3°
Sets 20:49:29 0° 333° (NNW) 3,318 8.8 -6.7°
